#timestamp,LO_Frequency,Hit,StdDev 
1625385615.9,286047000.2,N
1625385635.7,286047002.8,Y
1625385655.5,286047000.5,P
1625385675.4,286047000.8,P
1625385695.2,286046998.6,P
1625385715.0,286046998.6,N
1625385716.0,286046998.6,N
1625385735.8,286047000.2,N
1625385755.6,286047002.0,N
1625385775.5,286046999.7,N
1625385795.3,286047000.2,N
1625385815.1,286047000.2,N
1625385835.9,286046999.9,N
1625385855.7,286047000.2,N
1625385875.5,286047000.7,N
1625385895.4,286047001.1,N
1625385915.2,286047000.9,N
1625385935.1,286047000.9,N
1625385936.0,286047000.9,N
1625385955.8,286047000.8,N
1625385975.6,286047000.2,N
1625385995.5,286047000.3,N
1625386015.3,286047000.9,N
1625386035.1,286047000.3,N
1625386055.9,286047002.3,N
1625386075.7,286047002.0,N
1625386095.6,286047002.6,N
1625386115.4,286047000.9,N
1625386135.2,286046998.8,N
1625386155.1,286046998.5,N
1625386156.0,286046998.5,N
1625386175.8,286046999.9,N
1625386195.6,286047001.0,N
1625386215.5,286046999.9,N
1625386235.3,286047001.1,N
1625386255.2,286047001.0,N
1625386275.9,286047000.5,N
1625386295.7,286046998.3,N
1625386315.6,286046998.1,N
1625386335.4,286046998.3,N
1625386355.2,286046998.1,N
1625386375.1,286046998.2,N
1625386376.0,286046998.2,N
1625386395.8,286046998.8,N
1625386415.7,286046998.7,N
1625386435.5,286047002.6,N
1625386455.3,286047001.5,N
1625386475.2,286047001.6,N
1625386495.9,286047002.5,N
1625386515.7,286047002.0,N
1625386535.6,286047002.4,N
1625386555.4,286047002.4,N
1625386575.2,286047001.9,N
1625386595.1,286047004.2,N
1625386596.0,286047004.2,N
1625386615.8,286047001.4,N
1625386635.7,286047003.6,N
1625386655.5,286047004.1,N
1625386675.3,286047001.7,N
1625386695.2,286047001.3,N
1625386715.0,286047004.1,N
1625386715.9,286047004.1,N
1625386735.8,286047002.0,N
1625386755.6,286047002.5,N
1625386805.5,286047004.1,E
1625386815.4,286047002.6,N
1625386835.2,286046999.5,P
1625386855.1,286047001.2,N
1625386856.0,286047001.2,N
1625386875.8,286046998.2,N
1625386895.6,286047000.2,N
1625386915.5,286046998.2,N
1625386935.3,286046998.7,N
1625386955.1,286047001.2,N
1625386975.9,286046998.4,N
1625386995.7,286046998.8,N
1625387015.6,286046998.3,N
1625387035.4,286046996.7,N
1625387055.2,286046998.8,N
1625387075.1,286046998.8,N
1625387076.0,286046998.8,N
1625387095.8,286046999.5,N
1625387115.7,286046998.4,N
1625387135.5,286046997.7,N
1625387155.3,286046996.5,N
1625387175.2,286046998.9,N
1625387195.9,286046999.5,N
1625387215.7,286046998.9,N
1625387235.6,286046998.3,N
1625387255.4,286047001.1,N
1625387275.2,286047001.2,N
1625387295.1,286046998.7,N
1625387296.0,286046998.7,N
1625387315.8,286046998.4,N
1625387335.7,286046998.7,N
1625387355.5,286046996.8,N
1625387375.3,286047001.2,N
1625387395.2,286046998.1,N
1625387415.0,286047001.1,N
1625387415.9,286047001.1,N
1625387435.8,286047001.0,N
1625387455.6,286046998.9,N
1625387475.4,286046999.0,N
1625387495.3,286046998.5,N
1625387515.1,286047001.2,N
1625387535.9,286047001.2,N
1625387555.7,286047002.2,N
1625387575.6,286047001.7,N
1625387595.4,286047001.5,N
1625387615.2,286047002.3,N
1625387635.1,286047003.5,N
1625387636.0,286047003.5,N
1625387655.8,286047003.2,N
1625387675.6,286047005.6,N
1625387695.5,286047005.5,N
1625387715.3,286047005.3,N
1625387735.1,286047005.4,N
1625387755.9,286047004.8,N
1625387775.7,286047005.4,N
1625387795.6,286047005.6,N
1625387815.4,286047003.3,N
1625387835.2,286047004.0,N
1625387855.1,286047004.3,N
1625387856.0,286047004.3,N
1625387875.8,286047001.3,N
1625387895.7,286047001.4,N
1625387915.5,286047001.6,N
1625387935.3,286047001.9,N
1625387955.2,286047001.9,N
1625387975.9,286047000.1,N
1625387995.7,286047002.2,N
1625388015.6,286047002.3,N
1625388035.4,286047002.3,N
1625388055.2,286047002.1,N
1625388075.1,286047002.1,N
1625388076.0,286047002.1,N
1625388095.8,286047001.8,N
1625388115.7,286047002.3,N
1625388135.5,286047002.3,N
1625388155.3,286047002.4,N
1625388175.2,286047001.9,N
1625388195.0,286047002.5,N
1625388195.9,286047002.5,N
1625388215.7,286047002.4,N
1625388235.6,286047000.4,N
1625388255.4,286046998.6,N
1625388275.3,286046998.8,N
1625388295.1,286046996.6,N
1625388296.0,286046996.6,N
1625388315.8,286046997.7,N
1625388335.7,286046995.2,N
1625388355.5,286046995.7,N
1625388375.3,286046995.9,N
1625388395.2,286046994.2,N
1625388415.0,286046994.4,N
1625388415.9,286046994.4,N
1625388435.8,286046994.8,N
1625388455.6,286046992.1,N
1625388475.4,286046991.8,N
1625388495.3,286046992.3,N
1625388515.1,286046994.8,N
1625388535.8,286046994.7,N
1625388555.7,286046994.3,N
1625388575.5,286046994.6,N
1625388595.4,286046991.7,N
1625388615.2,286046994.5,N
1625388635.0,286046994.4,N
1625388635.9,286046994.4,N
1625388655.8,286046992.3,N
1625388675.6,286046994.7,N
1625388695.4,286046992.5,N
1625388715.3,286046992.0,N
1625388735.1,286046992.7,N
1625388755.9,286046992.4,Y
1625388775.7,286046996.8,P
1625388795.5,286046996.9,P
1625388815.4,286046999.3,N
1625388835.2,286046999.5,N
1625388855.1,286046999.2,N
1625388856.0,286046999.2,N
1625388875.8,286046998.4,N
1625388895.6,286046998.9,N
1625388915.5,286046999.5,N
1625388935.3,286046998.9,N
1625388955.1,286047001.2,N
1625388975.9,286047001.2,N
1625388995.7,286047000.4,N
1625389015.6,286047000.6,N
1625389035.4,286047000.4,N
1625389055.2,286047001.1,N
1625389075.1,286046998.3,N
1625389076.0,286046998.3,N
1625389095.8,286047000.3,N
1625389115.7,286046999.7,N
1625389135.5,286047001.1,N
1625389155.3,286047000.6,N
1625389175.2,286047000.9,N
1625389195.9,286047000.0,N
